Zurück zum Katalog

SL-12 DEB *

LostHEO
NORAD 35314·DEBRIS·🇷🇺 Russia

Gestartet Apr 4, 1991 von Baikonur Cosmodrome

Loading…

Nächste Überflüge (nächste 24 Stunden)

TLE

VeraltetSource: Space-Track

Epoche: Mar 20, 2014, 04:07 UTC

1 35314U 91025AP  14079.17165306 +.00031265 +00000-0 +10564+0 0  9995
2 35314 063.6184 138.5982 5050164 358.5131 000.9461 05.19456901090255

Verfolge SL-12 DEB * in Echtzeit mit AllMySat

Download on the App Store